When you browse on this site, cookies collect data to enhance your experience and personalize the content and advertising you see.
Visit our Privacy Policy to learn more. By continuing to use the site, you agree to this use of cookies and data.
  • In Switzerland
  • List of Countries
  • For 7 days
  • Water Temperature
  • Weather Map
  • Weather Widgets
  • user-avatar
    Login

    Hourly Weather Radomyshl

    Today, 26 February, Wednesday

    Time Temperature Precipitation Wind Pressure Humidity
    00:00 +3°C° 0.1 mm 4 mps 737 mmHg 75%
    01:00 +3°C° 0.1 mm 4 mps 736 mmHg 74%
    02:00 +3°C° 0 mm 3 mps 736 mmHg 74%
    03:00 +3°C° 0 mm 3 mps 735 mmHg 76%
    04:00 +3°C° 0 mm 3 mps 735 mmHg 78%
    05:00 +2°C° 0 mm 3 mps 734 mmHg 79%
    06:00 +3°C° 0 mm 3 mps 734 mmHg 79%
    07:00 +3°C° 0 mm 3 mps 734 mmHg 78%
    08:00 +4°C° 0 mm 3 mps 734 mmHg 78%
    09:00 +5°C° 0 mm 3 mps 734 mmHg 75%
    10:00 +7°C° 0 mm 3 mps 734 mmHg 72%
    11:00 +7°C° 0 mm 4 mps 734 mmHg 70%
    12:00 +9°C° 0 mm 3 mps 733 mmHg 71%
    13:00 +9°C° 0 mm 2 mps 733 mmHg 73%
    14:00 +9°C° 0 mm 2 mps 733 mmHg 74%
    15:00 +9°C° 0.1 mm 2 mps 732 mmHg 78%
    16:00 +8°C° 0.1 mm 2 mps 732 mmHg 82%
    17:00 +8°C° 0.1 mm 3 mps 732 mmHg 86%
    18:00 +8°C° 0.1 mm 3 mps 732 mmHg 86%
    19:00 +8°C° 0.1 mm 3 mps 731 mmHg 86%
    20:00 +8°C° 0.1 mm 3 mps 731 mmHg 86%
    21:00 +7°C° 0.1 mm 4 mps 731 mmHg 86%
    22:00 +6°C° 0.1 mm 4 mps 731 mmHg 86%
    23:00 +6°C° 0.1 mm 4 mps 730 mmHg 87%

    Tomorrow, 27 February, Thursday

    Time Temperature Precipitation Wind Pressure Humidity
    00:00 +6°C° 0 mm 4 mps 731 mmHg 87%
    01:00 +5°C° 0 mm 4 mps 731 mmHg 88%
    02:00 +5°C° 0 mm 4 mps 731 mmHg 89%
    03:00 +4°C° 0 mm 4 mps 731 mmHg 90%
    04:00 +4°C° 0 mm 3 mps 732 mmHg 91%
    05:00 +4°C° 0 mm 3 mps 732 mmHg 92%
    06:00 +4°C° 0 mm 3 mps 732 mmHg 91%
    07:00 +3°C° 0 mm 3 mps 732 mmHg 90%
    08:00 +3°C° 0 mm 3 mps 732 mmHg 88%
    09:00 +4°C° 0 mm 4 mps 733 mmHg 84%
    10:00 +4°C° 0 mm 4 mps 733 mmHg 79%
    11:00 +5°C° 0 mm 4 mps 733 mmHg 75%
    12:00 +5°C° 0.1 mm 5 mps 733 mmHg 72%
    13:00 +5°C° 0.1 mm 5 mps 734 mmHg 69%
    14:00 +4°C° 0.1 mm 6 mps 734 mmHg 65%
    15:00 +3°C° 0 mm 5 mps 734 mmHg 65%
    16:00 +3°C° 0 mm 5 mps 735 mmHg 65%
    17:00 +2°C° 0 mm 5 mps 735 mmHg 65%
    18:00 +3°C° 0 mm 4 mps 735 mmHg 68%
    19:00 +1°C° 0 mm 4 mps 736 mmHg 71%
    20:00 +1°C° 0 mm 3 mps 736 mmHg 74%
    21:00 +1°C° 0 mm 3 mps 736 mmHg 76%
    22:00 +1°C° 0 mm 3 mps 736 mmHg 77%
    23:00 0°C° 0 mm 3 mps 736 mmHg 79%

    Day after tomorrow, 28 February, Friday

    Time Temperature Precipitation Wind Pressure Humidity
    00:00 0°C° 0 mm 3 mps 736 mmHg 81%
    01:00 -1°C° 0 mm 3 mps 737 mmHg 83%
    02:00 -1°C° 0 mm 3 mps 737 mmHg 85%
    03:00 -1°C° 0 mm 3 mps 737 mmHg 85%
    04:00 -2°C° 0 mm 3 mps 737 mmHg 85%
    05:00 -2°C° 0 mm 3 mps 737 mmHg 85%
    06:00 -2°C° 0 mm 3 mps 738 mmHg 83%
    07:00 -1°C° 0 mm 3 mps 738 mmHg 80%
    08:00 -1°C° 0 mm 3 mps 738 mmHg 77%
    09:00 0°C° 0 mm 3 mps 738 mmHg 69%
    10:00 +1°C° 0 mm 3 mps 738 mmHg 61%
    11:00 +4°C° 0 mm 2 mps 738 mmHg 53%
    12:00 +3°C° 0 mm 3 mps 739 mmHg 53%
    13:00 +4°C° 0 mm 3 mps 739 mmHg 54%
    14:00 +4°C° 0 mm 3 mps 739 mmHg 55%
    15:00 +4°C° 0 mm 3 mps 739 mmHg 58%
    16:00 +5°C° 0 mm 2 mps 739 mmHg 61%
    17:00 +4°C° 0 mm 2 mps 739 mmHg 64%
    18:00 +4°C° 0 mm 2 mps 739 mmHg 66%
    19:00 +4°C° 0 mm 2 mps 739 mmHg 69%
    20:00 +3°C° 0 mm 2 mps 740 mmHg 72%
    21:00 +3°C° 0.2 mm 2 mps 740 mmHg 80%
    22:00 +3°C° 0.2 mm 1 mps 740 mmHg 87%
    23:00 +2°C° 0.2 mm 1 mps 740 mmHg 95%

    29 February, Saturday

    Time Temperature Precipitation Wind Pressure Humidity
    00:00 +2°C° 0.4 mm 1 mps 740 mmHg 96%
    01:00 +1°C° 0.4 mm 2 mps 741 mmHg 96%
    02:00 +1°C° 0.4 mm 2 mps 741 mmHg 97%
    03:00 0°C° 0.5 mm 3 mps 741 mmHg 97%
    04:00 -1°C° 0.5 mm 4 mps 741 mmHg 97%
    05:00 -1°C° 0.5 mm 5 mps 742 mmHg 97%
    06:00 -1°C° 0.2 mm 5 mps 742 mmHg 94%
    07:00 -1°C° 0.2 mm 4 mps 743 mmHg 91%
    08:00 -1°C° 0.2 mm 4 mps 744 mmHg 87%
    09:00 0°C° 0 mm 4 mps 744 mmHg 83%
    10:00 0°C° 0 mm 4 mps 744 mmHg 78%
    11:00 +1°C° 0 mm 5 mps 744 mmHg 73%
    12:00 +1°C° 0 mm 5 mps 744 mmHg 71%
    13:00 +2°C° 0 mm 5 mps 745 mmHg 69%
    14:00 +2°C° 0 mm 5 mps 745 mmHg 67%
    15:00 +2°C° 0 mm 5 mps 745 mmHg 69%
    16:00 +1°C° 0 mm 5 mps 745 mmHg 72%
    17:00 +1°C° 0 mm 4 mps 745 mmHg 75%
    18:00 0°C° 0 mm 4 mps 746 mmHg 78%
    19:00 +1°C° 0 mm 3 mps 746 mmHg 81%
    20:00 +1°C° 0 mm 2 mps 747 mmHg 83%
    21:00 +1°C° 0 mm 2 mps 747 mmHg 85%
    22:00 +1°C° 0 mm 2 mps 747 mmHg 86%
    23:00 -1°C° 0 mm 2 mps 747 mmHg 87%

    1 March, Sunday

    Time Temperature Precipitation Wind Pressure Humidity
    00:00 -1°C° 0 mm 2 mps 747 mmHg 88%
    01:00 +1°C° 0 mm 1 mps 747 mmHg 88%
    02:00 +1°C° 0 mm 1 mps 747 mmHg 88%
    03:00 -1°C° 0 mm 2 mps 748 mmHg 88%
    04:00 -1°C° 0 mm 2 mps 748 mmHg 87%
    05:00 -1°C° 0 mm 2 mps 748 mmHg 86%
    06:00 -1°C° 0 mm 3 mps 748 mmHg 82%
    07:00 -1°C° 0 mm 3 mps 748 mmHg 78%
    08:00 -1°C° 0 mm 4 mps 748 mmHg 75%
    09:00 0°C° 0 mm 5 mps 748 mmHg 68%
    10:00 +2°C° 0 mm 5 mps 748 mmHg 61%
    11:00 +3°C° 0 mm 6 mps 748 mmHg 54%
    12:00 +4°C° 0 mm 6 mps 747 mmHg 52%
    13:00 +4°C° 0 mm 7 mps 747 mmHg 50%
    14:00 +5°C° 0 mm 7 mps 746 mmHg 48%
    15:00 +5°C° 0 mm 7 mps 746 mmHg 51%
    16:00 +4°C° 0 mm 6 mps 745 mmHg 54%
    17:00 +5°C° 0 mm 5 mps 745 mmHg 57%
    18:00 +3°C° 0 mm 5 mps 745 mmHg 59%
    19:00 +3°C° 0 mm 5 mps 745 mmHg 62%
    20:00 +3°C° 0 mm 5 mps 745 mmHg 64%
    21:00 +3°C° 0 mm 5 mps 745 mmHg 67%
    22:00 +3°C° 0 mm 5 mps 744 mmHg 69%
    23:00 +3°C° 0 mm 5 mps 744 mmHg 72%

    2 March, Monday

    Time Temperature Precipitation Wind Pressure Humidity
    00:00 +3°C° 0.1 mm 5 mps 744 mmHg 75%
    01:00 +3°C° 0.1 mm 5 mps 744 mmHg 77%
    02:00 +3°C° 0.1 mm 6 mps 744 mmHg 80%
    03:00 +3°C° 0 mm 5 mps 743 mmHg 80%
    04:00 +2°C° 0 mm 5 mps 743 mmHg 80%
    05:00 +2°C° 0 mm 5 mps 742 mmHg 79%
    06:00 +2°C° 0 mm 5 mps 742 mmHg 79%
    07:00 +2°C° 0 mm 6 mps 742 mmHg 78%
    08:00 +2°C° 0 mm 6 mps 741 mmHg 77%
    09:00 +3°C° 0 mm 6 mps 741 mmHg 76%
    10:00 +4°C° 0 mm 6 mps 741 mmHg 74%
    11:00 +4°C° 0 mm 6 mps 741 mmHg 72%
    12:00 +5°C° 0.1 mm 6 mps 741 mmHg 72%
    13:00 +5°C° 0.1 mm 6 mps 740 mmHg 72%
    14:00 +7°C° 0.1 mm 6 mps 740 mmHg 71%
    15:00 +6°C° 0.4 mm 5 mps 740 mmHg 77%
    16:00 +6°C° 0.4 mm 4 mps 740 mmHg 83%
    17:00 +5°C° 0.4 mm 3 mps 740 mmHg 90%
    18:00 +5°C° 0.4 mm 3 mps 740 mmHg 91%
    19:00 +5°C° 0.4 mm 3 mps 740 mmHg 92%
    20:00 +6°C° 0.4 mm 2 mps 741 mmHg 93%
    21:00 +5°C° 0.1 mm 3 mps 741 mmHg 92%
    22:00 +4°C° 0.1 mm 3 mps 741 mmHg 92%
    23:00 +4°C° 0.1 mm 3 mps 741 mmHg 91%
    Show more